Weather History for Chicago Executive, IL

Change the Weather History Date:

Wednesday, June 4, 2014

  Actual Average Record
Temperature  
Mean Temperature 62 °F 65 °F  
Max Temperature 69 °F 76 °F 91 °F (2011)
Min Temperature 54 °F 54 °F 42 °F (2009)
Degree Days  
Heating Degree Days 3 4  
Month to date heating degree days 3 16  
Since 1 June heating degree days 3 16  
Since 1 July heating degree days 7129 6374  
Cooling Degree Days 0 3  
Month to date cooling degree days 31 12  
Year to date cooling degree days 89 54  
Since 1 June cooling degree days 31 12  
Growing Degree Days 12 (Base 50)    
Moisture  
Dew Point 55 °F    
Average Humidity 80    
Maximum Humidity 90    
Minimum Humidity 51    
Precipitation  
Precipitation 0.16 in 0.16 in 1.95 in (2002)
Month to date precipitation 0.24 0.67  
Year to date precipitation 9.44 12.16  
Sea Level Pressure  
Sea Level Pressure 29.88 in    
Wind  
Wind Speed 6 mph (NE)    
Max Wind Speed 16 mph    
Max Gust Speed 20 mph    
Visibility 9 miles    
Events Rain    
T = Trace of Precipitation, MM = Missing Value Source: NWS Daily Summary

Daily Weather History Graph

Daily Weather History Graph

Search for Another Location

Airport:

Trip Planner

Search our weather history database for the weather conditions in past years. The results will help you decide how hot, cold, wet, or windy it might be!

Date:

Astronomy

Jun. 04, 2014 Rise Set
Actual Time 5:16 AM CDT 8:23 PM CDT
Civil Twilight 4:42 AM CDT 8:57 PM CDT
Nautical Twilight 3:59 AM CDT 9:40 PM CDT
Astronomical Twilight 3:07 AM CDT 10:32 PM CDT
Moon 11:40 AM CDT (6/4) 12:17 AM CDT (6/4)
Length of Visible Light 16h 14m
Length of Day
15h 06m
Waxing Crescent, 39% of the Moon is Illuminated
Jun 4
Waxing Crescent
Jun 5
First Quarter
Jun 12
Full
Jun 19
Last Quarter
Jun 27
New

Hourly Weather History & Observations

Time (CDT) Temp. Dew Point Humidity Pressure Visibility Wind Dir Wind Speed Gust Speed Precip Events Conditions
2:52 AM 69.1 °F 50.0 °F 51% 29.86 in 10.0 mi SE 5.8 mph - N/A   Overcast
3:52 AM 69.1 °F 53.1 °F 57% 29.88 in 10.0 mi Calm Calm - 0.00 in Rain Light Rain
4:52 AM 66.0 °F 55.0 °F 68% 29.87 in 10.0 mi Calm Calm - 0.01 in Rain Light Rain
5:52 AM 63.0 °F 57.0 °F 81% 29.84 in 10.0 mi NE 3.5 mph - 0.05 in Rain Light Rain
6:52 AM 61.0 °F 55.0 °F 81% 29.79 in 10.0 mi East 10.4 mph - 0.03 in Rain Light Rain
7:52 AM 62.1 °F 55.9 °F 80% 29.80 in 10.0 mi ENE 6.9 mph - 0.01 in   Overcast
8:52 AM 62.1 °F 57.0 °F 84% 29.83 in 10.0 mi East 5.8 mph - 0.00 in   Overcast
9:49 AM 60.8 °F 55.4 °F 82% 29.87 in 2.5 mi ENE 8.1 mph - 0.02 in Rain Light Rain
10:06 AM 60.1 °F 57.0 °F 90% 29.86 in 2.5 mi NE 6.9 mph - 0.01 in Rain Light Rain
10:28 AM 59.0 °F 55.9 °F 90% 29.87 in 8.0 mi NE 8.1 mph - 0.02 in Rain Light Rain
10:52 AM 59.0 °F 55.9 °F 90% 29.86 in 8.0 mi NNE 8.1 mph - 0.03 in Rain Light Rain
11:52 AM 60.1 °F 57.0 °F 90% 29.86 in 10.0 mi NE 6.9 mph - 0.00 in   Overcast
12:52 PM 61.0 °F 57.0 °F 87% 29.86 in 9.0 mi NNE 12.7 mph - N/A   Overcast
1:52 PM 62.1 °F 57.0 °F 84% 29.87 in 10.0 mi NE 10.4 mph - N/A   Overcast
2:52 PM 62.1 °F 55.9 °F 80% 29.88 in 10.0 mi ENE 10.4 mph - N/A   Overcast
3:42 PM 60.1 °F 55.0 °F 83% 29.90 in 10.0 mi NNE 8.1 mph - N/A   Overcast
3:52 PM 60.1 °F 55.0 °F 83% 29.89 in 10.0 mi NNE 9.2 mph - N/A   Overcast
4:52 PM 64.0 °F 55.9 °F 75% 29.90 in 10.0 mi NE 10.4 mph - N/A   Overcast
4:59 PM 64.0 °F 55.9 °F 75% 29.90 in 10.0 mi NNE 8.1 mph - N/A   Mostly Cloudy
5:52 PM 63.0 °F 55.0 °F 75% 29.90 in 10.0 mi NE 10.4 mph - N/A   Partly Cloudy
6:52 PM 64.0 °F 55.0 °F 73% 29.91 in 10.0 mi NNE 10.4 mph - N/A   Clear
7:52 PM 62.1 °F 55.0 °F 78% 29.92 in 10.0 mi NNE 5.8 mph - N/A   Clear
8:52 PM 59.0 °F 54.0 °F 83% 29.92 in 10.0 mi NNE 4.6 mph - N/A   Clear
10:52 PM 55.9 °F 53.1 °F 90% 29.94 in 10.0 mi Calm Calm - N/A   Clear
11:52 PM 55.0 °F 51.1 °F 86% 29.94 in 10.0 mi Calm Calm - N/A   Clear